CALDWELL/FAIRFLD, NJ current weather conditions

sailwx.info

Wind from 340 at 8 knots

Air temperature 5.0° C
Visibility: greater than 8.7 NM
Dewpoint -4.0° C

Last reported at 2020-Jan-28 21:05 UTC.
Time now 2020-Jan-28 22:26 UTC

Location: N 40°53' W 074°17'.
View on Google Maps.

See reports from other nearby stations

  
Tides and Currents Weather Stations Pressure Air Temp Water Temp Dewpoint Dewpoint Depression Visibility Wind Speed Wind Dir Waves Ship Positions
date/time (UTC)wind fromknots sea level pressurealtimeterstation pressurevisibilityair tempwater tempwave heightnotes
2020-Jan-28 22:10 320 7 8.7 4.0
2020-Jan-28 22:05 330 5 8.7 4.0
2020-Jan-28 22:00 310 9 8.7 4.0
2020-Jan-28 21:55 320 7 8.7 4.0
2020-Jan-28 21:53 320 6 8.7 4.4
2020-Jan-28 21:50 300 10 8.7 4.0
2020-Jan-28 21:45 320 9 8.7 4.0
2020-Jan-28 21:40 310 11 8.7 4.0
2020-Jan-28 21:35 320 8 8.7 4.0
2020-Jan-28 21:30 310 11 8.7 4.0
2020-Jan-28 21:25 320 8 8.7 4.0
2020-Jan-28 21:20 320 14 8.7 4.0
2020-Jan-28 21:15 320 10 8.7 4.0
2020-Jan-28 21:10 320 11 8.7 5.0
2020-Jan-28 21:05 340 8 8.7 5.0
2020-Jan-28 21:00 310 11 8.7 5.0
2020-Jan-28 20:55 310 12 8.7 5.0
2020-Jan-28 20:53 310 11 gusting 15 8.7 5.0
2020-Jan-28 20:50 320 10 gusting 16 8.7 5.0
2020-Jan-28 20:45 310 8 8.7 5.0
2020-Jan-28 20:40 310 12 8.7 5.0
2020-Jan-28 20:35 320 10 8.7 5.0
2020-Jan-28 20:30 310 8 8.7 5.0
2020-Jan-28 20:25 330 10 8.7 5.0
2020-Jan-28 20:20 330 5 8.7 5.0
2020-Jan-28 20:15 330 7 8.7 5.0
2020-Jan-28 20:10 320 7 8.7 5.0
2020-Jan-28 20:05 310 7 8.7 5.0
2020-Jan-28 20:00 320 9 8.7 5.0
2020-Jan-28 19:55 300 12 8.7 5.0
2020-Jan-28 19:53 300 8 8.7 5.0
2020-Jan-28 19:50 330 8 8.7 5.0
2020-Jan-28 19:45 330 8 8.7 5.0
2020-Jan-28 19:40 330 8 8.7 5.0
2020-Jan-28 19:35 330 5 8.7 5.0
2020-Jan-28 19:30 330 7 8.7 5.0
2020-Jan-28 19:25 330 7 8.7 5.0
2020-Jan-28 19:20 330 10 8.7 5.0
2020-Jan-28 19:15 320 6 8.7 5.0
2020-Jan-28 19:10 330 9 8.7 5.0
2020-Jan-28 19:05 340 9 8.7 5.0
2020-Jan-28 19:00 320 8 8.7 5.0
2020-Jan-28 18:55 320 9 gusting 14 8.7 5.0
2020-Jan-28 18:53 330 11 gusting 15 8.7 5.0
2020-Jan-28 18:50 320 9 8.7 5.0
2020-Jan-28 18:45 320 9 8.7 5.0
2020-Jan-28 18:40 330 10 8.7 5.0
2020-Jan-28 18:35 350 7 8.7 5.0
2020-Jan-28 18:30 330 7 8.7 5.0
2020-Jan-28 18:25 340 9 8.7 5.0
2020-Jan-28 18:20 330 14 gusting 20 8.7 5.0
2020-Jan-28 18:15 310 9 8.7 6.0
2020-Jan-28 18:10 340 8 8.7 6.0
2020-Jan-28 18:05 310 12 8.7 6.0
2020-Jan-28 18:00 300 14 8.7 6.0
2020-Jan-28 17:55 310 10 8.7 6.0
2020-Jan-28 17:53 310 9 gusting 19 8.7 5.6
2020-Jan-28 17:50 300 13 8.7 6.0
2020-Jan-28 17:45 320 11 gusting 18 8.7 6.0
2020-Jan-28 17:40 340 10 8.7 6.0
2020-Jan-28 17:35 330 11 8.7 6.0
2020-Jan-28 17:30 330 11 8.7 6.0
2020-Jan-28 17:25 300 15 8.7 6.0
2020-Jan-28 17:20 300 15 8.7 6.0
2020-Jan-28 17:15 320 11 8.7 6.0
2020-Jan-28 17:10 310 14 8.7 6.0
2020-Jan-28 17:05 310 15 8.7 6.0
2020-Jan-28 17:00 300 13 gusting 19 8.7 6.0
2020-Jan-28 16:55 310 12 gusting 18 8.7 6.0
2020-Jan-28 16:53 330 13 gusting 21 8.7 5.6
2020-Jan-28 16:50 310 14 8.7 6.0
2020-Jan-28 16:45 320 15 8.7 6.0
2020-Jan-28 16:40 310 14 8.7 6.0
2020-Jan-28 16:35 330 12 8.7 6.0
2020-Jan-28 16:30 330 9 8.7 6.0
2020-Jan-28 16:25 320 16 8.7 6.0
2020-Jan-28 16:20 320 10 8.7 6.0
2020-Jan-28 16:15 330 11 8.7 6.0
2020-Jan-28 16:10 310 15 gusting 20 8.7 6.0
2020-Jan-28 16:05 310 15 gusting 20 8.7 6.0
2020-Jan-28 16:00 320 14 8.7 6.0
2020-Jan-28 15:55 320 11 gusting 16 8.7 6.0
2020-Jan-28 15:53 330 7 8.7 6.1
2020-Jan-28 15:50 330 9 8.7 6.0
2020-Jan-28 15:45 320 12 8.7 6.0
2020-Jan-28 15:40 310 10 gusting 19 8.7 6.0
2020-Jan-28 15:35 330 11 8.7 6.0
2020-Jan-28 15:30 320 9 8.7 6.0
2020-Jan-28 15:25 320 8 8.7 6.0
2020-Jan-28 15:20 330 10 8.7 5.0
2020-Jan-28 15:15 330 8 8.7 5.0
2020-Jan-28 15:10 330 7 8.7 5.0
2020-Jan-28 15:05 320 6 8.7 5.0
2020-Jan-28 15:00 330 11 8.7 5.0
2020-Jan-28 14:55 330 8 8.7 5.0
2020-Jan-28 14:53 320 7 8.7 5.0
2020-Jan-28 14:50 330 8 8.7 4.0
2020-Jan-28 14:45 330 10 8.7 4.0
2020-Jan-28 14:40 320 12 8.7 4.0
2020-Jan-28 14:35 340 10 8.7 4.0
2020-Jan-28 14:30 330 8 8.7 4.0
2020-Jan-28 14:25 310 6 8.7 4.0
2020-Jan-28 14:20 330 9 8.7 4.0
2020-Jan-28 14:15 310 11 8.7 4.0
2020-Jan-28 14:10 330 9 8.7 4.0
2020-Jan-28 14:05 310 10 gusting 18 8.7 4.0
2020-Jan-28 14:00 320 6 8.7 4.0
2020-Jan-28 13:55 330 9 8.7 4.0
2020-Jan-28 13:53 330 9 8.7 3.9
2020-Jan-28 13:50 310 8 8.7 4.0
2020-Jan-28 13:45 320 6 8.7 4.0
2020-Jan-28 13:40 300 7 8.7 4.0
2020-Jan-28 13:35 330 6 8.7 4.0
2020-Jan-28 13:30 310 7 8.7 4.0
2020-Jan-28 13:25 320 7 8.7 3.0
2020-Jan-28 13:20 310 9 8.7 3.0
2020-Jan-28 13:15 320 8 8.7 3.0
2020-Jan-28 13:10 300 7 8.7 3.0
2020-Jan-28 13:05 320 6 8.7 3.0
2020-Jan-28 13:00 320 6 8.7 3.0
2020-Jan-28 12:55 320 9 8.7 3.0
2020-Jan-28 12:53 310 7 8.7 3.3
2020-Jan-28 12:50 320 6 8.7 3.0
2020-Jan-28 12:45 320 7 8.7 3.0
2020-Jan-28 12:40 320 4 8.7 3.0
2020-Jan-28 12:35 300 5 8.7 3.0
2020-Jan-28 12:30 300 5 8.7 3.0
2020-Jan-28 12:25 300 9 8.7 3.0
2020-Jan-28 12:20 320 4 8.7 3.0
2020-Jan-28 12:15 300 6 8.7 3.0
2020-Jan-28 12:10 300 6 8.7 3.0
2020-Jan-28 12:05 310 6 8.7 3.0
2020-Jan-28 12:00 300 6 8.7 3.0
2020-Jan-28 11:55 300 6 8.7 3.0
2020-Jan-28 11:53 320 6 8.7 3.3
2020-Jan-28 11:50 300 5 8.7 3.0
2020-Jan-28 11:45 300 5 8.7 3.0
2020-Jan-28 11:40 300 6 8.7 3.0
2020-Jan-28 11:35 310 7 8.7 3.0
2020-Jan-28 11:30 310 6 8.7 3.0
2020-Jan-28 11:25 320 5 8.7 3.0
2020-Jan-28 11:20 310 5 8.7 3.0
2020-Jan-28 11:15 290 6 8.7 3.0
2020-Jan-28 11:10 310 4 8.7 3.0
2020-Jan-28 11:05 300 5 8.7 3.0
2020-Jan-28 11:00 310 5 8.7 3.0
2020-Jan-28 10:55 320 4 8.7 3.0
2020-Jan-28 10:53 320 6 8.7 3.3
2020-Jan-28 10:50 320 6 8.7 3.0
2020-Jan-28 10:45 320 6 8.7 3.0
2020-Jan-28 10:40 320 8 8.7 3.0
2020-Jan-28 10:35 330 6 8.7 3.0
2020-Jan-28 10:30 330 5 8.7 3.0
2020-Jan-28 10:25 340 5 8.7 3.0
2020-Jan-28 10:20 310 5 8.7 3.0
2020-Jan-28 10:15 340 5 8.7 3.0
2020-Jan-28 10:10 320 6 8.7 3.0
2020-Jan-28 10:05 310 5 8.7 3.0
2020-Jan-28 10:00 320 5 8.7 3.0
2020-Jan-28 09:55 320 5 8.7 3.0
2020-Jan-28 09:53 320 7 8.7 3.3
2020-Jan-28 09:50 320 4 8.7 3.0
2020-Jan-28 09:45 320 4 8.7 3.0
2020-Jan-28 09:40 340 5 8.7 3.0
2020-Jan-28 09:35 310 6 8.7 3.0
2020-Jan-28 09:30 320 5 8.7 3.0
2020-Jan-28 09:25 310 6 8.7 3.0
2020-Jan-28 09:20 320 5 8.7 3.0
2020-Jan-28 09:15 310 6 8.7 3.0
2020-Jan-28 09:10 300 7 8.7 3.0
2020-Jan-28 09:05 310 5 8.7 3.0
2020-Jan-28 09:00 310 8 8.7 3.0
2020-Jan-28 08:55 310 5 8.7 3.0
2020-Jan-28 08:53 310 6 8.7 3.3
2020-Jan-28 08:50 310 5 8.7 3.0
2020-Jan-28 08:45 320 6 8.7 3.0
2020-Jan-28 08:40 320 9 8.7 3.0
2020-Jan-28 08:35 310 9 8.7 3.0
2020-Jan-28 08:30 300 7 8.7 3.0
2020-Jan-28 08:25 300 7 8.7 3.0
2020-Jan-28 08:20 300 8 8.7 4.0
2020-Jan-28 08:15 310 7 8.7 3.0
2020-Jan-28 08:10 310 9 8.7 3.0
2020-Jan-28 08:05 320 6 8.7 3.0
2020-Jan-28 08:00 320 6 8.7 4.0
2020-Jan-28 07:55 320 6 8.7 4.0
2020-Jan-28 07:53 320 6 8.7 3.3
2020-Jan-28 07:50 320 5 8.7 3.0
2020-Jan-28 07:45 320 7 8.7 3.0
2020-Jan-28 07:40 300 8 8.7 4.0
2020-Jan-28 07:35 300 9 8.7 4.0
2020-Jan-28 07:30 300 8 8.7 4.0
2020-Jan-28 07:25 310 8 8.7 4.0
2020-Jan-28 07:20 310 8 8.7 4.0
2020-Jan-28 07:15 290 8 8.7 4.0
2020-Jan-28 07:10 300 7 8.7 4.0
2020-Jan-28 07:05 300 9 8.7 4.0
2020-Jan-28 07:00 290 7 8.7 4.0
2020-Jan-28 06:55 300 7 8.7 4.0
2020-Jan-28 06:53 300 8 8.7 3.9
2020-Jan-28 06:50 300 8 8.7 4.0
2020-Jan-28 06:45 290 8 8.7 4.0
2020-Jan-28 06:40 290 8 8.7 4.0
2020-Jan-28 06:35 290 9 8.7 4.0
2020-Jan-28 06:30 300 8 8.7 4.0
2020-Jan-28 06:25 310 7 8.7 4.0
2020-Jan-28 06:20 290 7 8.7 4.0
2020-Jan-28 06:15 310 6 8.7 4.0
2020-Jan-28 06:10 290 6 8.7 4.0
2020-Jan-28 06:05 300 8 8.7 4.0
2020-Jan-28 06:00 310 7 8.7 4.0
2020-Jan-28 05:55 290 7 8.7 4.0
2020-Jan-28 05:53 300 8 8.7 4.4
2020-Jan-28 05:50 290 8 8.7 4.0
2020-Jan-28 05:45 300 11 8.7 4.0
2020-Jan-28 05:40 300 9 8.7 4.0
2020-Jan-28 05:35 310 7 8.7 4.0
2020-Jan-28 05:30 310 8 8.7 4.0
2020-Jan-28 05:25 310 6 8.7 4.0
2020-Jan-28 05:20 320 6 8.7 4.0
2020-Jan-28 05:15 330 7 8.7 4.0
2020-Jan-28 05:10 310 5 8.7 4.0
2020-Jan-28 05:05 320 5 8.7 4.0
2020-Jan-28 05:00 310 6 8.7 4.0
2020-Jan-28 04:55 310 5 8.7 4.0
2020-Jan-28 04:53 8.7 4.4
2020-Jan-28 04:50 300 4 8.7 4.0
2020-Jan-28 04:45 310 5 8.7 4.0
2020-Jan-28 04:40 320 6 8.7 4.0
2020-Jan-28 04:35 320 7 8.7 4.0
2020-Jan-28 04:30 330 7 8.7 4.0
2020-Jan-28 04:25 310 7 8.7 4.0
2020-Jan-28 04:20 310 6 8.7 4.0
2020-Jan-28 04:15 310 4 8.7 4.0
2020-Jan-28 04:10 310 6 8.7 4.0
2020-Jan-28 04:05 300 6 8.7 4.0
2020-Jan-28 04:00 300 6 8.7 4.0
2020-Jan-28 03:55 290 6 8.7 4.0
2020-Jan-28 03:53 300 6 8.7 4.4
2020-Jan-28 03:50 310 5 8.7 4.0
2020-Jan-28 03:45 300 7 8.7 4.0
2020-Jan-28 03:40 310 8 8.7 4.0
2020-Jan-28 03:35 320 7 8.7 5.0
2020-Jan-28 03:30 310 8 8.7 4.0
2020-Jan-28 03:25 320 7 8.7 4.0
2020-Jan-28 03:20 320 5 8.7 4.0
2020-Jan-28 03:15 310 7 8.7 5.0
2020-Jan-28 03:10 310 8 8.7 4.0
2020-Jan-28 03:05 310 6 8.7 4.0
2020-Jan-28 03:00 320 6 8.7 4.0
2020-Jan-28 02:55 310 6 8.7 4.0
2020-Jan-28 02:53 320 6 8.7 4.4 Light rain.
2020-Jan-28 02:50 320 6 8.7 4.0 Light rain.
2020-Jan-28 02:45 330 7 8.7 5.0 Light rain.
2020-Jan-28 02:40 320 7 8.7 5.0
2020-Jan-28 02:35 320 8 8.7 5.0
2020-Jan-28 02:30 320 8 8.7 6.0
2020-Jan-28 02:25 340 4 8.7 6.0
2020-Jan-28 02:20 330 5 8.7 6.0
2020-Jan-28 02:15 320 6 8.7 6.0
2020-Jan-28 02:10 320 6 8.7 6.0
2020-Jan-28 02:05 330 3 8.7 6.0
2020-Jan-28 02:00 8.7 6.0
2020-Jan-28 01:55 320 3 8.7 5.0
2020-Jan-28 01:53 8.7 5.6
2020-Jan-28 01:50 8.7 6.0
2020-Jan-28 01:45 8.7 6.0
2020-Jan-28 01:40 8.7 6.0
2020-Jan-28 01:35 8.7 6.0
2020-Jan-28 01:30 8.7 6.0
2020-Jan-28 01:25 320 3 8.7 6.0
2020-Jan-28 01:20 320 3 8.7 6.0
2020-Jan-28 01:15 320 3 8.7 6.0
2020-Jan-28 01:10 310 3 8.7 6.0
2020-Jan-28 00:53 320 4 8.7 5.6
2020-Jan-28 00:50 310 3 8.7 6.0
2020-Jan-28 00:45 300 5 8.7 6.0
2020-Jan-28 00:40 310 6 8.7 6.0
2020-Jan-28 00:35 320 5 8.7 6.0
2020-Jan-28 00:30 310 5 8.7 6.0
2020-Jan-28 00:25 300 5 8.7 6.0
2020-Jan-28 00:20 320 8 8.7 6.0
2020-Jan-28 00:15 320 5 8.7 6.0
2020-Jan-28 00:10 320 4 8.7 6.0
2020-Jan-28 00:05 330 5 8.7 6.0
2020-Jan-28 00:00 310 4 8.7 6.0
2020-Jan-27 23:55 310 5 8.7 6.0
2020-Jan-27 23:53 290 6 8.7 6.1
2020-Jan-27 23:50 300 4 8.7 6.0
2020-Jan-27 23:45 280 7 8.7 6.0
2020-Jan-27 23:40 300 5 8.7 6.0
2020-Jan-27 23:35 290 4 8.7 6.0
2020-Jan-27 23:30 290 3 8.7 6.0
2020-Jan-27 23:25 300 4 8.7 6.0
2020-Jan-27 23:20 300 3 8.7 6.0
2020-Jan-27 23:15 310 4 8.7 6.0
2020-Jan-27 23:10 310 5 8.7 6.0
2020-Jan-27 23:05 320 6 8.7 6.0
2020-Jan-27 23:00 310 6 8.7 6.0
2020-Jan-27 22:55 300 5 8.7 6.0
2020-Jan-27 22:53 300 5 8.7 6.7
2020-Jan-27 22:50 300 7 8.7 7.0
2020-Jan-27 22:45 290 7 8.7 7.0
2020-Jan-27 22:40 300 4 8.7 7.0
2020-Jan-27 22:35 310 4 8.7 7.0
2020-Jan-27 22:30 310 5 8.7 7.0
2020-Jan-27 22:25 320 5 8.7 7.0
2020-Jan-27 22:20 310 5 8.7 7.0
2020-Jan-27 22:15 310 6 8.7 7.0
2020-Jan-27 22:10 320 8 8.7 7.0
2020-Jan-27 22:05 310 6 8.7 7.0
2020-Jan-27 22:00 320 8 8.7 7.0
2020-Jan-27 21:55 310 8 8.7 7.0
2020-Jan-27 21:53 320 7 8.7 6.7
2020-Jan-27 21:50 310 4 8.7 7.0
2020-Jan-27 21:45 310 9 8.7 7.0
2020-Jan-27 21:40 330 7 8.7 7.0
2020-Jan-27 21:35 320 8 8.7 7.0
2020-Jan-27 21:30 310 8 8.7 7.0
2020-Jan-27 21:25 310 9 8.7 7.0
2020-Jan-27 21:20 300 7 8.7 7.0
2020-Jan-27 21:15 310 6 8.7 7.0
2020-Jan-27 21:10 310 9 8.7 7.0
2020-Jan-27 21:05 320 8 8.7 7.0
2020-Jan-27 21:00 320 8 8.7 7.0
2020-Jan-27 20:55 320 6 8.7 7.0
2020-Jan-27 20:53 310 11 gusting 14 8.7 7.2
2020-Jan-27 20:50 320 8 8.7 7.0
2020-Jan-27 20:45 310 11 8.7 7.0
2020-Jan-27 20:40 320 11 8.7 8.0
2020-Jan-27 20:35 310 9 8.7 8.0
2020-Jan-27 20:30 290 10 8.7 8.0
2020-Jan-27 20:25 300 10 8.7 8.0
2020-Jan-27 20:20 310 8 8.7 8.0
2020-Jan-27 20:15 320 8 8.7 7.0
2020-Jan-27 20:10 310 10 8.7 7.0
2020-Jan-27 20:05 320 10 8.7 7.0
2020-Jan-27 20:00 300 9 8.7 8.0
2020-Jan-27 19:55 290 9 8.7 8.0
2020-Jan-27 19:53 320 7 8.7 7.8
2020-Jan-27 19:50 320 8 8.7 8.0
2020-Jan-27 19:45 300 10 8.7 7.0
2020-Jan-27 19:40 320 9 8.7 8.0
2020-Jan-27 19:35 320 6 8.7 8.0
2020-Jan-27 19:30 300 8 8.7 7.0
2020-Jan-27 19:25 310 10 8.7 7.0
2020-Jan-27 19:20 280 10 8.7 7.0
2020-Jan-27 19:15 290 11 8.7 8.0
2020-Jan-27 19:10 300 10 8.7 7.0
2020-Jan-27 19:05 300 10 8.7 7.0
2020-Jan-27 19:00 300 8 8.7 7.0
2020-Jan-27 18:55 300 10 8.7 7.0
2020-Jan-27 18:53 310 7 8.7 7.2
2020-Jan-27 18:50 320 9 8.7 7.0
2020-Jan-27 18:45 320 9 8.7 7.0
2020-Jan-27 18:40 320 8 8.7 7.0
2020-Jan-27 18:35 320 7 8.7 8.0
2020-Jan-27 18:30 310 6 8.7 8.0
2020-Jan-27 18:25 320 9 8.7 8.0
2020-Jan-27 18:20 290 10 8.7 8.0
2020-Jan-27 18:15 310 8 8.7 8.0
2020-Jan-27 18:10 290 9 8.7 8.0
2020-Jan-27 18:05 290 6 8.7 8.0
2020-Jan-27 18:00 300 8 8.7 8.0
2020-Jan-27 17:55 300 12 8.7 8.0
2020-Jan-27 17:53 310 11 8.7 7.8
2020-Jan-27 17:50 310 11 8.7 8.0
2020-Jan-27 17:45 280 9 8.7 8.0
2020-Jan-27 17:40 290 7 8.7 8.0
2020-Jan-27 17:35 280 5 8.7 7.0
2020-Jan-27 17:30 270 7 8.7 7.0
2020-Jan-27 17:25 280 8 8.7 7.0
2020-Jan-27 17:20 290 10 8.7 7.0
2020-Jan-27 17:15 290 8 8.7 7.0
2020-Jan-27 17:10 290 7 8.7 7.0
2020-Jan-27 17:05 280 4 8.7 7.0
2020-Jan-27 17:00 270 5 8.7 7.0
2020-Jan-27 16:55 270 4 8.7 7.0
2020-Jan-27 16:53 260 4 8.7 6.7
2020-Jan-27 16:50 280 4 8.7 7.0
2020-Jan-27 16:45 240 4 8.7 7.0
2020-Jan-27 16:40 230 6 8.7 7.0
2020-Jan-27 16:35 250 4 8.7 7.0
2020-Jan-27 16:30 240 6 8.7 7.0
2020-Jan-27 16:25 240 4 8.7 7.0
2020-Jan-27 16:20 270 5 8.7 7.0
2020-Jan-27 16:15 230 6 8.7 7.0
2020-Jan-27 16:10 240 4 8.7 7.0
2020-Jan-27 16:05 240 8 8.7 7.0
2020-Jan-27 16:00 270 7 8.7 7.0
2020-Jan-27 15:55 270 8 8.7 7.0
2020-Jan-27 15:53 8.7 6.1
2020-Jan-27 15:50 270 6 8.7 6.0
2020-Jan-27 15:45 8.7 6.0
2020-Jan-27 15:40 250 4 8.7 6.0
2020-Jan-27 15:35 240 6 8.7 6.0
2020-Jan-27 15:30 250 5 8.7 6.0
2020-Jan-27 15:25 250 5 8.7 6.0
2020-Jan-27 15:20 250 7 8.7 6.0
2020-Jan-27 15:15 260 7 8.7 6.0
2020-Jan-27 15:10 240 5 8.7 5.0
2020-Jan-27 15:05 230 4 8.7 4.0
2020-Jan-27 15:00 240 6 8.7 4.0
2020-Jan-27 14:55 240 5 8.7 4.0
2020-Jan-27 14:53 230 6 8.7 4.4
2020-Jan-27 14:50 230 4 8.7 4.0
2020-Jan-27 14:45 210 6 8.7 4.0
2020-Jan-27 14:40 220 5 8.7 4.0
2020-Jan-27 14:35 220 5 8.7 4.0
2020-Jan-27 14:30 220 5 8.7 4.0
2020-Jan-27 14:25 220 8 8.7 4.0
2020-Jan-27 14:20 210 4 8.7 4.0
2020-Jan-27 14:15 230 6 8.7 3.0
2020-Jan-27 14:10 220 7 8.7 3.0
2020-Jan-27 14:05 220 5 8.7 3.0
2020-Jan-27 14:00 220 6 8.7 3.0
2020-Jan-27 13:55 230 5 8.7 3.0
2020-Jan-27 13:53 230 6 8.7 2.8
2020-Jan-27 13:50 230 5 8.7 3.0
2020-Jan-27 13:45 230 5 8.7 3.0
2020-Jan-27 13:40 230 4 8.7 3.0
2020-Jan-27 13:35 230 4 8.7 3.0
2020-Jan-27 13:30 220 5 8.7 3.0
2020-Jan-27 13:25 230 5 8.7 3.0
2020-Jan-27 13:20 210 4 8.7 3.0
2020-Jan-27 13:15 210 5 8.7 3.0
2020-Jan-27 13:10 220 4 8.7 3.0
2020-Jan-27 13:05 220 4 8.7 3.0
2020-Jan-27 13:00 220 5 8.7 3.0
2020-Jan-27 12:55 230 4 8.7 3.0
2020-Jan-27 12:53 230 4 8.7 2.8
2020-Jan-27 12:50 230 4 8.7 3.0
2020-Jan-27 12:45 230 4 8.7 2.0
2020-Jan-27 12:40 240 3 8.7 3.0
2020-Jan-27 12:35 220 4 8.7 3.0
2020-Jan-27 12:30 8.7 3.0
2020-Jan-27 12:25 210 4 8.7 3.0
2020-Jan-27 12:20 220 5 8.7 3.0
2020-Jan-27 12:15 220 4 8.7 3.0
2020-Jan-27 12:10 230 4 8.7 3.0
2020-Jan-27 12:05 220 3 8.7 3.0
2020-Jan-27 12:00 220 4 8.7 3.0
2020-Jan-27 11:55 230 4 8.7 3.0
2020-Jan-27 11:53 8.7 2.8
2020-Jan-27 11:50 220 3 8.7 3.0
2020-Jan-27 11:45 230 3 8.7 3.0
2020-Jan-27 11:40 240 3 8.7 3.0
2020-Jan-27 11:35 240 4 8.7 3.0
2020-Jan-27 11:30 220 4 8.7 3.0
2020-Jan-27 11:25 230 4 8.7 3.0
2020-Jan-27 11:20 220 4 8.7 3.0
2020-Jan-27 11:15 230 5 8.7 3.0
2020-Jan-27 11:10 220 4 8.7 3.0
2020-Jan-27 11:05 220 4 8.7 3.0
2020-Jan-27 11:00 220 3 8.7 3.0
2020-Jan-27 10:55 210 4 8.7 3.0
2020-Jan-27 10:53 220 2 8.7 2.8
2020-Jan-27 10:50 230 3 8.7 3.0
2020-Jan-27 10:45 230 4 8.7 3.0
2020-Jan-27 10:40 220 4 8.7 3.0
2020-Jan-27 10:35 220 4 8.7 3.0
2020-Jan-27 10:30 220 4 8.7 3.0
2020-Jan-27 10:25 220 4 8.7 3.0
2020-Jan-27 10:20 220 4 8.7 3.0
2020-Jan-27 10:15 200 4 8.7 3.0
2020-Jan-27 10:10 230 3 8.7 3.0
2020-Jan-27 10:05 210 4 8.7 3.0
2020-Jan-27 10:00 210 4 8.7 3.0
2020-Jan-27 09:55 210 5 8.7 3.0
2020-Jan-27 09:53 8.7 2.8
2020-Jan-27 09:50 220 3 8.7 3.0
2020-Jan-27 09:45 220 5 8.7 3.0
2020-Jan-27 09:40 210 5 8.7 3.0
2020-Jan-27 09:35 200 4 8.7 3.0
2020-Jan-27 09:30 200 3 8.7 3.0
2020-Jan-27 09:25 8.7 3.0
2020-Jan-27 09:20 210 3 8.7 3.0
2020-Jan-27 09:15 210 5 8.7 3.0
2020-Jan-27 09:10 210 3 8.7 3.0
2020-Jan-27 09:05 220 4 8.7 3.0
2020-Jan-27 09:00 220 4 8.7 3.0
2020-Jan-27 08:55 220 4 8.7 3.0
2020-Jan-27 08:53 8.7 2.2
2020-Jan-27 08:50 210 3 8.7 3.0
2020-Jan-27 08:45 230 3 8.7 2.0
2020-Jan-27 08:40 230 3 8.7 2.0
2020-Jan-27 08:35 220 3 8.7 3.0
2020-Jan-27 08:30 220 4 8.7 2.0
2020-Jan-27 08:25 220 4 8.7 2.0
2020-Jan-27 08:20 210 3 8.7 2.0
2020-Jan-27 08:15 230 3 8.7 2.0
2020-Jan-27 08:10 220 5 8.7 3.0
2020-Jan-27 08:05 220 3 8.7 2.0
2020-Jan-27 08:00 8.7 2.0
2020-Jan-27 07:55 220 3 8.7 2.0
2020-Jan-27 07:53 8.7 2.2
2020-Jan-27 07:50 220 3 8.7 2.0
2020-Jan-27 07:45 220 4 8.7 2.0
2020-Jan-27 07:40 230 4 8.7 2.0
2020-Jan-27 07:35 230 3 8.7 2.0
2020-Jan-27 07:30 220 3 8.7 3.0
2020-Jan-27 07:25 230 3 8.7 2.0
2020-Jan-27 07:20 220 3 8.7 3.0
2020-Jan-27 07:15 210 3 8.7 3.0
2020-Jan-27 07:10 230 3 8.7 3.0
2020-Jan-27 07:05 220 3 8.7 3.0
2020-Jan-27 07:00 220 3 8.7 3.0
2020-Jan-27 06:55 230 4 8.7 3.0
2020-Jan-27 06:53 8.7 2.8
2020-Jan-27 06:50 240 4 8.7 3.0
2020-Jan-27 06:45 230 5 8.7 3.0
2020-Jan-27 06:40 230 4 8.7 3.0
2020-Jan-27 06:35 210 3 8.7 3.0
2020-Jan-27 06:30 210 4 8.7 3.0
2020-Jan-27 06:25 220 3 8.7 3.0
2020-Jan-27 06:20 230 4 8.7 3.0
2020-Jan-27 06:15 210 4 8.7 3.0
2020-Jan-27 06:10 210 4 8.7 3.0
2020-Jan-27 06:05 220 3 8.7 3.0
2020-Jan-27 06:00 210 3 8.7 3.0
2020-Jan-27 05:55 210 3 8.7 2.0
2020-Jan-27 05:53 210 2 8.7 2.2
2020-Jan-27 05:50 210 3 8.7 2.0
2020-Jan-27 05:45 210 3 8.7 2.0
2020-Jan-27 05:40 8.7 2.0
2020-Jan-27 05:35 220 3 8.7 2.0
2020-Jan-27 05:30 220 3 8.7 2.0
2020-Jan-27 05:25 220 3 8.7 2.0
2020-Jan-27 05:20 220 3 8.7 2.0
2020-Jan-27 05:15 210 4 8.7 2.0
2020-Jan-27 05:10 8.7 2.0
2020-Jan-27 05:05 8.7 2.0
2020-Jan-27 05:00 210 3 8.7 2.0
2020-Jan-27 04:55 210 4 8.7 3.0
2020-Jan-27 04:53 210 4 8.7 2.8
2020-Jan-27 04:50 210 3 8.7 3.0
2020-Jan-27 04:45 200 4 8.7 3.0
2020-Jan-27 04:40 200 3 8.7 2.0
2020-Jan-27 04:35 210 4 8.7 2.0
2020-Jan-27 04:30 200 3 8.7 2.0
2020-Jan-27 04:25 200 3 8.7 2.0
2020-Jan-27 04:20 8.7 2.0
2020-Jan-27 04:15 220 3 8.7 2.0
2020-Jan-27 04:10 230 3 8.7 2.0
2020-Jan-27 04:05 240 3 8.7 2.0
2020-Jan-27 04:00 230 3 8.7 2.0
2020-Jan-27 03:55 230 3 8.7 2.0
2020-Jan-27 03:53 230 2 8.7 2.2
2020-Jan-27 03:50 240 3 8.7 2.0
2020-Jan-27 03:45 8.7 2.0
2020-Jan-27 03:40 230 3 8.7 2.0
2020-Jan-27 03:35 220 3 8.7 2.0
2020-Jan-27 03:30 220 3 8.7 2.0
2020-Jan-27 03:25 220 3 8.7 2.0
2020-Jan-27 03:20 220 3 8.7 2.0
2020-Jan-27 03:15 8.7 3.0
2020-Jan-27 03:10 210 3 8.7 3.0
2020-Jan-27 03:05 210 3 8.7 3.0
2020-Jan-27 03:00 210 3 8.7 3.0
2020-Jan-27 02:55 210 4 8.7 3.0
2020-Jan-27 02:53 220 2 8.7 2.8
2020-Jan-27 02:50 220 4 8.7 3.0
2020-Jan-27 02:45 210 3 8.7 3.0
2020-Jan-27 02:40 210 4 8.7 3.0
2020-Jan-27 02:35 210 4 8.7 3.0
2020-Jan-27 02:30 200 3 8.7 3.0
2020-Jan-27 02:25 210 3 8.7 3.0
2020-Jan-27 02:20 220 3 8.7 3.0
2020-Jan-27 02:15 210 3 8.7 3.0
2020-Jan-27 02:10 210 3 8.7 4.0
2020-Jan-27 02:05 210 4 8.7 3.0
2020-Jan-27 02:00 220 3 8.7 4.0
2020-Jan-27 01:55 220 4 8.7 4.0
2020-Jan-27 01:53 220 2 8.7 3.9
2020-Jan-27 01:50 210 4 8.7 4.0
2020-Jan-27 01:45 210 4 8.7 4.0
2020-Jan-27 01:40 210 3 8.7 4.0
2020-Jan-27 01:35 220 3 8.7 4.0
2020-Jan-27 01:30 220 3 8.7 4.0
2020-Jan-27 01:25 210 3 8.7 4.0
2020-Jan-27 01:20 220 3 8.7 4.0
2020-Jan-27 01:15 220 3 8.7 4.0
2020-Jan-27 01:10 8.7 4.0
2020-Jan-27 01:05 210 3 8.7 4.0
2020-Jan-27 01:00 210 4 8.7 4.0
2020-Jan-27 00:55 230 5 8.7 4.0
2020-Jan-27 00:53 230 4 8.7 4.4
2020-Jan-27 00:50 240 3 8.7 4.0
2020-Jan-27 00:45 230 4 8.7 4.0
2020-Jan-27 00:40 220 4 8.7 5.0
2020-Jan-27 00:35 230 4 8.7 4.0
2020-Jan-27 00:30 230 3 8.7 5.0
2020-Jan-27 00:25 8.7 5.0
2020-Jan-27 00:20 230 3 8.7 5.0
2020-Jan-27 00:15 250 3 8.7 6.0
2020-Jan-27 00:10 250 3 8.7 6.0
2020-Jan-27 00:05 260 4 8.7 6.0
2020-Jan-27 00:00 270 4 8.7 6.0
2020-Jan-26 23:55 260 4 8.7 5.0
2020-Jan-26 23:53 260 4 8.7 5.0
2020-Jan-26 23:50 250 3 8.7 5.0
2020-Jan-26 23:45 260 3 8.7 5.0
2020-Jan-26 23:40 270 3 8.7 6.0
2020-Jan-26 23:35 260 4 8.7 5.0
2020-Jan-26 23:30 260 4 8.7 6.0
2020-Jan-26 23:25 250 5 8.7 5.0
2020-Jan-26 23:20 240 3 8.7 5.0
2020-Jan-26 23:15 230 3 8.7 5.0
2020-Jan-26 23:10 230 3 8.7 5.0
2020-Jan-26 23:05 230 3 8.7 6.0
2020-Jan-26 23:00 8.7 6.0
2020-Jan-26 22:55 250 3 8.7 6.0
2020-Jan-26 22:53 8.7 6.1
2020-Jan-26 22:50 250 3 8.7 6.0
2020-Jan-26 22:45 260 5 8.7 6.0
2020-Jan-26 22:40 270 6 8.7 6.0
2020-Jan-26 22:35 280 6 8.7 7.0
2020-Jan-26 22:30 270 4 8.7 7.0
2020-Jan-26 22:25 270 3 8.7 7.0
2020-Jan-26 22:20 270 5 8.7 7.0
2020-Jan-26 22:15 280 6 8.7 7.0
2020-Jan-26 22:10 290 8 8.7 7.0
2020-Jan-26 22:05 280 6 8.7 7.0
2020-Jan-26 22:00 280 6 8.7 7.0